Location: Pic du Midi - T1M
(42.9366°N, 0.1426°E)
Time: 18:18:55
(UTC+01:00)

Nauka - Pass Details

Date: 29 September 2021
Orbit: 417 x 423 km, 51.6° (Epoch: 24 October)

Event Time Altitude Azimuth Distance (km) Brightness Sun altitude
Rises 19:11:39 0° 299° (WNW) 2,357 ? -5.9°
Reaches altitude 10° 19:14:11 10° 319° (NW) 1,494 ? -6.3°
Maximum altitude 19:16:39 19° 6° (N) 1,072 ? -6.8°
Drops below altitude 10° 19:19:07 10° 54° (NE) 1,495 ? -7.2°
Enters shadow 19:19:57 - 62° (ENE) 1,757 ? -7.4°
